Temperature
16 15 15 14 14 13 13 13 12 12 12 12 12 12 11 11 11 11 11 11 11 11 11 11 11 11 11 11 11 12 12 12 12 13 13 14 14 14 14 14 14 15 15
16 16 15 14 14 13 13 13 12 12 12 12 12 12 11 11 11 11 11 11 11 11 11 11 11 11 11 11 11 11 11 12 12 12 13 13 13 14 14 14 14 14 14
16 16 15 14 14 13 13 12 12 12 12 12 12 11 11 11 11 11 11 11 11 10 10 10 10 10 11 11 11 11 11 11 12 12 12 12 13 13 13 13 13 14 14
16 15 15 14 14 13 13 13 12 12 12 12 12 11 11 11 11 11 11 10 10 10 10 10 10 10 10 10 10 11 11 11 11 11 11 12 12 13 13 13 13 13 13
16 15 15 14 14 13 13 13 12 12 12 11 11 11 11 11 11 11 11 10 10 10 10 10 10 10 10 10 10 10 10 10 10 10 11 11 12 12 12 13 13 13 13
16 15 15 14 14 13 13 12 12 12 12 12 11 11 11 11 11 11 11 11 10 10 10 10 10 10 10 10 10 10 10 10 10 10 10 11 11 11 12 12 12 12 12
16 15 15 14 14 13 13 13 12 12 12 12 12 11 11 11 11 11 11 10 10 10 10 10 9 9 10 10 10 10 10 10 10 10 10 10 11 11 11 11 12 12 12
16 16 15 14 14 13 13 13 12 12 12 12 11 11 11 11 11 10 10 10 10 10 10 10 9 9 9 9 9 9 9 9 10 10 10 10 10 11 11 11 11 11 11
16 16 15 14 14 14 13 13 12 12 12 12 11 11 11 11 11 11 10 10 10 10 9 9 9 9 9 9 9 9 9 9 9 9 9 10 10 10 10 10 10 10 11
16 16 15 15 14 14 13 13 13 12 12 12 11 11 11 11 11 11 10 10 10 9 9 9 9 9 9 9 9 9 9 9 9 9 9 9 9 10 10 10 10 10 10
16 16 15 15 14 14 13 13 13 12 12 12 12 12 11 11 11 11 11 10 10 9 9 9 9 9 9 9 9 9 8 8 8 8 9 9 9 9 10 10 10 10 10
16 15 15 15 14 14 13 13 13 12 12 12 12 12 12 12 11 11 11 10 10 9 9 9 9 9 9 9 9 8 8 8 8 8 8 8 9 9 10 10 10 10 10
15 15 15 14 14 14 13 13 12 12 12 12 12 12 12 12 11 11 10 10 10 9 9 9 8 8 8 8 8 8 8 8 8 7 7 8 9 9 9 10 10 10 10
15 15 14 14 14 13 13 13 13 13 13 13 12 12 12 12 11 11 10 10 9 9 9 8 8 8 8 8 8 8 8 8 8 7 8 8 8 9 9 9 10 10 10
15 14 14 13 13 13 13 13 13 13 13 13 12 12 11 11 11 11 10 10 9 9 8 8 8 8 8 8 8 8 8 7 7 7 7 8 8 9 9 9 9 10 10
14 14 13 13 13 14 13 13 13 13 13 13 13 12 12 12 11 11 10 10 9 9 8 8 8 8 8 8 8 8 8 8 8 8 8 8 8 8 9 9 9 9 9
14 13 13 13 13 13 13 13 13 13 13 13 13 12 12 12 11 11 10 10 9 9 8 8 8 8 8 8 8 8 8 8 8 8 8 8 8 8 9 9 9 9 9
13 13 13 13 13 13 13 13 13 13 13 13 13 12 12 12 11 11 10 9 9 9 8 8 8 8 8 8 8 8 8 8 8 8 8 8 8 8 8 9 9 9 9
13 13 13 13 13 13 13 13 13 13 13 13 13 12 12 11 11 11 10 9 9 9 9 8 8 8 8 8 8 8 8 8 8 8 8 8 8 8 9 9 9 9 9
12 13 13 12 12 12 13 13 13 13 13 12 12 12 12 11 11 10 10 10 9 9 9 8 8 8 8 8 8 8 8 8 8 8 8 8 8 8 9 9 9 9 9
12 12 12 12 12 12 12 12 12 12 12 12 12 12 12 11 11 10 10 9 9 9 9 9 8 8 8 8 8 8 8 8 8 8 8 8 8 8 9 9 9 9 9
11 11 12 12 12 12 12 12 12 12 12 12 12 12 11 11 10 10 10 9 9 9 9 8 8 8 8 8 8 8 8 8 8 8 8 8 8 8 8 9 9 9 9
11 11 11 11 12 12 12 12 11 11 11 11 11 11 11 11 10 10 10 9 9 9 9 8 8 8 8 8 8 8 8 8 8 8 8 8 8 9 9 9 9 9 9
10 10 11 11 11 11 11 11 11 11 11 11 11 11 11 10 10 10 9 9 9 9 8 8 8 8 8 8 8 8 8 8 8 8 8 8 8 9 9 9 9 9 9
9 10 10 10 10 10 10 10 10 10 10 10 10 10 10 10 10 9 9 9 9 8 8 8 8 8 8 8 8 8 8 8 8 8 8 8 8 9 9 9 9 9 9
9 9 9 9 10 10 10 10 10 10 10 10 10 10 10 9 9 9 9 9 9 8 8 8 8 8 8 8 8 8 8 8 8 8 8 8 9 9 9 9 9 9 9
Wind_Speed
4 2 1 1 2 3 4 5 4 4 4 5 6 6 7 7 7 6 7 8 8 7 8 8 8 7 6 6 6 6 6 6 7 6 5 4 3 4 3 4 7 7 9
4 3 2 2 2 4 5 4 4 5 5 6 6 6 7 8 7 7 8 8 8 8 8 8 8 8 8 7 6 7 7 7 7 8 6 5 6 5 5 5 4 6 6
3 2 2 2 3 4 4 5 5 5 6 6 6 7 7 7 7 8 8 8 8 8 8 8 8 8 8 7 7 7 7 8 7 7 7 6 5 5 5 5 5 3 4
2 2 3 3 4 4 5 5 5 6 6 7 7 7 7 8 8 8 8 8 8 7 7 8 8 9 9 8 8 8 8 8 7 7 7 6 6 5 4 4 4 3 3
2 3 3 3 4 5 5 6 6 6 8 7 7 7 7 8 9 7 6 8 6 7 7 8 10 11 11 9 10 7 6 5 6 6 7 6 6 4 4 4 4 3 3
4 4 4 4 4 5 5 6 6 6 7 7 7 8 8 10 4 3 4 6 7 8 9 9 10 11 13 15 16 14 12 10 8 7 7 7 6 5 4 4 3 3 3
5 5 5 5 5 5 6 6 6 6 7 7 7 8 8 9 9 9 9 7 8 9 9 9 12 13 10 7 10 14 15 17 15 11 10 9 8 6 5 5 5 4 4
6 6 5 5 5 5 5 6 6 6 6 7 7 8 8 10 10 10 10 9 10 10 11 11 11 11 13 9 8 8 9 10 12 13 12 12 11 8 6 6 6 5 4
6 5 5 5 5 5 6 6 6 6 7 7 8 8 8 9 10 12 11 7 9 11 11 11 11 10 12 11 8 8 9 9 12 15 15 14 15 12 8 5 5 5 5
5 4 4 4 5 6 7 7 7 6 7 9 9 8 8 9 11 12 12 8 9 9 9 9 12 11 11 10 8 8 9 9 9 9 8 10 11 11 12 10 8 7 5
4 4 5 5 6 7 8 7 6 7 8 9 10 10 10 11 11 13 14 9 8 9 8 7 6 5 8 10 10 8 10 8 7 7 7 7 8 8 9 10 9 9 7
4 5 5 5 7 8 6 6 7 8 9 10 10 10 8 8 9 9 14 15 11 8 8 8 5 3 6 9 9 11 11 8 8 8 8 8 8 8 8 9 10 10 8
5 5 5 6 6 7 8 8 8 8 9 9 7 7 7 5 4 8 12 14 15 10 9 11 10 10 9 9 14 15 11 8 9 9 9 9 8 8 8 8 9 9 8
6 6 6 7 8 8 8 8 8 8 7 7 6 6 7 5 3 2 3 6 9 10 9 10 13 15 13 12 10 10 10 10 10 9 8 8 7 6 7 7 7 7 6
6 6 8 9 10 8 9 8 9 8 8 8 7 7 8 7 3 2 3 4 4 3 4 7 8 8 8 8 8 8 9 9 11 10 9 8 7 7 6 6 7 7 7
6 7 8 9 8 8 8 8 12 14 14 15 15 13 9 10 8 8 8 9 8 5 4 8 10 9 9 8 8 8 8 9 9 9 8 8 8 7 7 6 6 7 8
7 8 9 9 9 9 8 8 8 9 12 14 16 16 15 14 12 12 11 9 9 6 6 10 10 10 9 8 8 8 8 8 8 8 8 8 8 7 6 7 7 7 8
8 10 10 9 9 10 9 9 9 8 8 7 9 14 16 16 16 15 10 5 8 7 8 10 10 9 8 8 8 7 7 7 7 7 7 8 8 7 7 7 7 8 8
9 10 9 9 10 10 9 9 9 8 7 8 7 5 12 14 14 14 8 7 9 9 8 8 8 8 7 7 7 7 6 6 6 7 7 8 7 7 7 7 7 9 8
9 13 12 11 12 11 10 10 9 8 7 7 7 5 3 4 5 6 7 8 9 9 8 8 7 7 6 6 5 6 6 6 6 6 7 6 6 6 7 8 7 7 7
11 12 12 11 11 10 10 9 9 8 8 8 7 5 4 5 7 7 5 6 6 7 6 6 6 6 6 5 5 6 6 5 5 6 6 6 6 6 5 6 6 7 7
12 12 12 12 11 9 9 9 9 9 8 9 6 5 6 6 7 6 5 5 5 5 5 5 5 5 6 6 5 5 5 5 5 5 6 6 5 6 6 6 6 7 7
12 14 13 12 11 9 8 8 8 8 8 8 7 5 5 5 5 5 5 5 4 4 4 4 4 5 5 4 4 4 4 4 4 4 5 5 6 6 5 6 7 7 8
15 15 14 12 10 10 9 8 7 7 7 7 7 6 5 5 4 5 5 4 4 4 4 4 4 6 7 5 4 3 1 1 2 2 4 4 5 4 4 5 6 7 8
15 14 13 11 10 9 8 8 8 8 7 6 6 5 5 4 3 3 3 3 4 4 5 4 4 4 5 5 4 1 2 3 2 1 3 3 5 6 6 7 6 6 7
14 13 12 10 9 8 8 8 7 7 6 6 5 5 4 4 4 3 3 3 3 3 4 3 3 4 4 3 1 2 3 2 2 1 2 3 4 4 5 5 7 7 7
Wind_Direction
199 186 247 268 294 300 288 281 285 293 297 291 288 287 286 282 278 275 274 272 271 270 273 271 266 265 266 271 272 269 266 261 267 272 269 279 271 267 260 251 252 243 233
184 177 203 225 264 276 284 298 303 292 283 280 279 282 281 281 281 279 278 281 279 277 274 274 273 271 263 260 262 264 263 260 260 269 271 276 273 265 253 248 253 248 238
174 185 202 231 255 265 276 278 278 278 278 277 277 277 278 279 277 273 269 270 272 275 276 274 273 270 269 263 262 264 268 268 257 259 264 259 256 259 257 256 255 246 239
179 209 224 233 250 259 264 269 271 273 275 274 273 274 275 276 274 272 271 268 267 268 269 272 272 269 267 265 265 257 261 266 271 268 265 261 255 249 242 242 256 248 240
203 234 240 237 246 256 260 264 265 267 274 275 278 278 277 276 271 271 270 275 284 288 284 279 273 269 264 261 266 267 275 276 275 275 271 267 258 250 242 231 244 246 237
208 241 246 245 252 258 262 262 265 268 272 274 274 277 277 280 287 268 268 289 290 285 282 279 278 271 259 246 243 245 246 255 259 264 272 271 274 275 271 250 243 243 245
208 234 245 247 257 260 272 277 278 280 280 278 277 276 275 276 261 245 243 262 274 274 273 273 276 276 282 268 249 241 243 244 241 246 257 264 272 273 277 275 258 253 248
213 226 237 246 259 266 268 271 273 276 279 279 277 277 274 274 259 240 237 249 266 267 265 263 263 267 272 270 271 264 252 246 238 235 239 246 252 257 247 251 255 257 258
222 223 236 246 260 266 269 270 273 273 275 277 278 272 270 270 255 237 228 255 263 267 264 263 260 260 259 252 251 258 262 261 257 246 230 231 231 236 232 236 240 233 244
233 233 238 244 255 263 268 269 270 270 273 276 276 276 275 273 260 235 219 248 265 273 274 269 263 259 259 241 236 247 257 260 267 275 256 244 237 233 224 221 225 227 231
233 236 236 239 248 253 253 253 257 266 272 275 277 276 270 266 261 236 218 234 259 275 282 284 283 279 254 238 233 244 252 264 274 271 266 254 238 231 226 221 219 220 221
234 245 250 250 262 270 260 255 255 261 269 270 267 269 270 265 254 235 217 222 242 263 274 281 290 297 268 251 241 246 250 255 259 259 257 250 238 230 228 222 217 215 214
243 252 260 264 261 265 267 266 262 257 262 268 270 277 280 276 246 224 220 227 234 242 263 275 285 277 267 255 244 245 245 243 245 248 248 248 242 233 226 223 220 214 212
253 258 260 261 261 259 256 263 267 268 269 273 280 286 287 282 271 217 228 239 239 245 260 271 266 258 251 254 257 241 232 236 238 241 243 246 250 239 228 219 215 206 206
256 263 268 268 268 262 261 255 258 259 263 265 275 283 289 292 286 208 259 274 282 298 300 280 273 265 251 243 242 240 231 226 232 238 242 243 242 238 229 217 209 201 203
257 263 271 275 276 275 273 271 254 246 251 243 240 248 264 267 258 244 251 255 257 254 268 271 272 269 264 258 251 247 239 233 230 230 233 236 239 234 224 214 206 205 207
261 272 278 281 284 284 284 282 282 272 252 246 246 245 243 257 264 263 264 270 263 231 244 261 265 264 263 262 257 252 246 236 226 225 227 229 231 229 222 215 209 207 209
265 271 271 271 274 277 278 279 279 282 285 279 253 236 237 242 248 254 258 271 268 239 243 254 261 262 259 259 257 254 248 237 227 224 224 225 226 223 216 213 210 209 205
281 279 277 279 281 280 277 279 280 280 281 286 284 245 230 238 246 251 234 240 260 269 268 265 263 262 261 260 256 253 249 236 228 223 223 222 222 217 212 211 207 206 206
285 276 272 277 280 281 282 282 282 281 284 284 280 276 250 234 254 250 225 234 250 262 271 273 271 268 263 257 253 248 245 235 225 226 226 218 216 212 208 206 202 198 201
301 296 282 275 274 276 279 282 284 284 286 287 283 276 269 269 271 274 267 247 254 265 272 277 280 280 270 254 245 244 242 235 222 221 220 214 211 207 206 204 204 203 203
305 301 298 293 285 279 279 283 284 284 287 289 285 274 243 256 272 279 282 280 273 268 266 268 275 279 278 272 257 239 236 235 225 216 210 204 204 208 209 205 201 198 198
303 300 297 293 291 289 286 286 286 286 288 290 289 292 280 273 277 279 282 286 282 284 279 265 270 276 271 264 261 246 230 226 218 207 202 201 206 204 202 206 205 196 196
306 302 299 300 300 297 293 293 290 290 293 294 294 295 296 291 288 291 294 296 296 292 282 272 267 273 279 281 273 267 243 193 203 222 214 209 203 204 208 210 211 204 200
304 302 303 304 303 303 301 299 296 294 295 298 300 302 301 303 303 296 295 294 297 296 295 291 280 279 293 291 285 287 96 101 105 256 226 213 209 208 210 215 209 203 197
307 306 307 306 307 309 307 303 299 299 300 301 305 307 318 322 315 302 295 295 300 298 300 303 304 301 297 298 313 107 126 140 139 295 270 228 222 223 215 214 205 200 193
Height
1522 1522 1522 1521 1520 1519 1518 1517 1516 1515 1514 1512 1511 1510 1509 1508 1507 1507 1506 1505 1505 1504 1503 1503 1503 1503 1502 1502 1502 1502 1502 1503 1501 1501 1501 1501 1500 1500 1499 1499 1499 1499 1499
1520 1520 1519 1518 1517 1516 1515 1514 1513 1512 1510 1509 1508 1506 1505 1504 1504 1503 1502 1501 1500 1499 1499 1498 1498 1498 1497 1497 1497 1497 1497 1497 1497 1496 1496 1496 1496 1496 1495 1494 1494 1494 1494
1518 1517 1517 1515 1514 1513 1512 1511 1510 1508 1507 1505 1504 1503 1501 1500 1499 1498 1497 1496 1496 1495 1494 1493 1493 1492 1492 1492 1492 1491 1492 1492 1492 1491 1490 1491 1491 1491 1491 1490 1489 1489 1489
1515 1514 1514 1512 1511 1510 1509 1508 1506 1505 1503 1502 1501 1499 1497 1496 1495 1493 1492 1492 1491 1490 1489 1488 1487 1487 1486 1486 1486 1486 1486 1486 1486 1486 1485 1486 1486 1486 1486 1485 1484 1484 1484
1512 1511 1511 1510 1508 1507 1506 1504 1503 1501 1500 1499 1497 1495 1494 1492 1491 1489 1488 1487 1486 1484 1483 1482 1481 1481 1480 1480 1480 1480 1481 1480 1480 1480 1480 1481 1481 1481 1481 1481 1480 1480 1480
1508 1508 1507 1506 1505 1504 1503 1501 1500 1498 1496 1495 1493 1491 1489 1488 1487 1485 1484 1482 1480 1478 1476 1475 1474 1474 1474 1473 1473 1474 1474 1474 1474 1475 1475 1475 1476 1476 1477 1477 1476 1476 1476
1505 1505 1504 1503 1502 1501 1500 1498 1496 1494 1492 1490 1488 1486 1484 1483 1482 1480 1478 1476 1474 1472 1470 1468 1468 1468 1468 1468 1467 1467 1467 1467 1468 1468 1468 1468 1470 1471 1472 1472 1472 1472 1472
1501 1501 1500 1500 1499 1497 1496 1494 1492 1490 1488 1486 1484 1482 1479 1478 1476 1475 1473 1470 1468 1466 1464 1462 1461 1461 1461 1461 1460 1460 1460 1460 1460 1460 1460 1461 1463 1465 1466 1467 1467 1467 1467
1498 1497 1497 1496 1495 1493 1491 1490 1488 1486 1483 1481 1479 1477 1475 1473 1471 1469 1467 1465 1462 1460 1458 1457 1456 1455 1454 1454 1454 1453 1453 1453 1454 1454 1454 1454 1456 1458 1460 1461 1462 1462 1462
1494 1493 1493 1491 1490 1488 1487 1485 1483 1481 1479 1477 1474 1472 1470 1468 1466 1464 1462 1460 1457 1455 1453 1452 1451 1449 1448 1448 1447 1447 1446 1446 1447 1447 1448 1448 1449 1450 1452 1454 1455 1457 1457
1489 1489 1487 1486 1485 1483 1481 1480 1478 1476 1474 1472 1470 1467 1465 1462 1460 1458 1456 1454 1452 1450 1448 1446 1445 1444 1442 1441 1441 1440 1439 1440 1440 1440 1440 1441 1442 1443 1444 1446 1448 1450 1452
1485 1484 1483 1482 1480 1479 1477 1475 1473 1471 1469 1467 1465 1462 1460 1457 1455 1453 1451 1449 1447 1444 1442 1440 1439 1437 1436 1435 1434 1433 1433 1433 1433 1433 1433 1434 1435 1436 1438 1439 1441 1444 1446
1481 1480 1478 1477 1475 1474 1472 1470 1468 1466 1464 1462 1460 1458 1455 1453 1450 1447 1445 1443 1441 1439 1436 1434 1433 1431 1430 1428 1427 1427 1426 1426 1425 1426 1426 1427 1429 1430 1432 1434 1435 1438 1440
1476 1475 1474 1472 1470 1469 1467 1465 1464 1462 1460 1458 1455 1453 1450 1448 1445 1442 1440 1438 1435 1433 1430 1428 1426 1424 1423 1421 1420 1419 1419 1418 1419 1419 1420 1421 1423 1424 1425 1427 1429 1432 1434
1472 1470 1469 1467 1466 1464 1462 1460 1457 1456 1454 1452 1449 1447 1445 1442 1440 1437 1435 1432 1429 1427 1424 1422 1420 1418 1416 1414 1413 1412 1412 1412 1412 1412 1414 1415 1416 1418 1419 1421 1424 1426 1429
1467 1466 1464 1463 1461 1459 1456 1454 1452 1450 1448 1445 1443 1441 1438 1436 1433 1431 1428 1426 1423 1421 1418 1415 1413 1411 1410 1408 1407 1406 1406 1405 1406 1406 1407 1409 1410 1412 1414 1416 1418 1420 1423
1462 1461 1459 1458 1456 1453 1451 1448 1446 1444 1442 1439 1437 1434 1432 1430 1428 1425 1422 1419 1417 1414 1412 1409 1407 1405 1403 1402 1401 1400 1399 1399 1400 1400 1401 1403 1404 1406 1408 1410 1412 1415 1417
1457 1455 1453 1451 1449 1447 1445 1443 1440 1438 1435 1433 1431 1428 1426 1424 1421 1419 1416 1413 1411 1408 1406 1403 1401 1399 1397 1396 1395 1394 1393 1393 1394 1395 1396 1397 1399 1401 1402 1405 1407 1410 1412
1452 1450 1448 1446 1443 1441 1438 1436 1434 1432 1429 1427 1425 1422 1420 1417 1415 1413 1410 1407 1405 1402 1400 1398 1396 1394 1392 1390 1389 1388 1388 1388 1388 1389 1390 1391 1393 1395 1398 1400 1402 1405 1408
1446 1444 1442 1439 1437 1435 1432 1430 1428 1426 1423 1421 1419 1417 1414 1412 1409 1407 1404 1401 1399 1397 1395 1392 1391 1389 1387 1386 1384 1384 1383 1383 1384 1384 1386 1387 1389 1391 1393 1395 1398 1401 1404
1441 1438 1436 1433 1430 1428 1426 1424 1422 1419 1417 1415 1413 1411 1409 1406 1404 1402 1400 1397 1394 1392 1389 1387 1386 1384 1383 1382 1380 1380 1379 1379 1380 1380 1381 1383 1385 1387 1389 1392 1394 1397 1400
1437 1433 1431 1428 1425 1422 1419 1417 1416 1414 1411 1409 1407 1405 1403 1401 1399 1397 1394 1392 1389 1387 1385 1383 1381 1380 1379 1378 1377 1377 1376 1376 1376 1377 1378 1380 1381 1383 1386 1388 1391 1393 1396
1432 1428 1425 1422 1419 1416 1413 1411 1409 1407 1405 1404 1402 1400 1398 1396 1394 1391 1389 1387 1384 1382 1380 1378 1377 1376 1375 1375 1374 1374 1374 1373 1374 1375 1376 1377 1379 1381 1383 1385 1387 1390 1393
1427 1423 1420 1416 1413 1410 1408 1406 1404 1402 1400 1398 1397 1395 1393 1391 1389 1387 1385 1382 1380 1378 1376 1374 1373 1372 1372 1372 1372 1372 1371 1372 1372 1373 1374 1375 1377 1378 1380 1382 1385 1387 1389
1421 1418 1414 1411 1408 1405 1403 1400 1399 1397 1395 1393 1392 1390 1389 1387 1385 1383 1381 1379 1377 1374 1373 1371 1370 1369 1369 1369 1369 1369 1369 1370 1370 1371 1372 1373 1374 1376 1378 1380 1382 1384 1387
1416 1412 1409 1406 1403 1400 1398 1396 1393 1392 1390 1388 1387 1386 1385 1383 1381 1379 1377 1375 1373 1372 1370 1369 1367 1367 1366 1366 1366 1367 1367 1367 1368 1369 1370 1371 1372 1374 1376 1377 1380 1382 1384